"startDT [UTC]","vpos","CH4 [ppm]","stdev(CH4) [ppm]","CO2 [ppm]","stdev(CO2) [ppm]","H2O [ppm]","stdev(H2O)","p_LGR [torr]","T_LGR [C]","mt1_LGR [us]","mt2_LGR [us]","T_ECpre [C]","T_EC1 [C]","T_EC2 [C]","p_inlet [hPa]","p_in [hPa]","p_out [hPa]","T_inlet [C]","RH_inlet [%]","dwpt_inlet [C]","T_vent [C]","RH_vent [%]","dwpt_vent [C]","flow_vent [l min-1]","flow_inlet [l min-1]","dwpt_sample [C]","T_room [C]"
2012-11-05 00:00:00,0.0,1.9267,0.0010,404.85,0.24,161.9,29.7,138.07,30.27,24.65,36.41,0.04,-272.75,-272.75,-43,565,-933,24.9,3.0,-23.3,24.9,3.0,-23.1,5.73,2.38,-24.9,29.7
2012-11-05 00:01:00,0.0,1.9267,0.0009,404.87,0.21,167.6,35.0,138.07,30.27,24.65,36.41,0.04,-272.75,-272.75,-43,565,-933,24.9,3.0,-23.3,24.9,3.0,-23.1,5.73,2.44,-24.9,29.7
2012-11-05 00:02:00,0.0,1.9275,0.0010,404.95,0.22,153.9,29.3,138.07,30.27,24.65,36.41,0.04,-272.75,-272.74,-42,565,-933,24.9,3.0,-23.3,24.9,3.0,-23.0,5.73,2.40,-24.9,29.7
2012-11-05 00:03:00,0.0,1.9271,0.0009,405.03,0.22,159.4,31.1,138.07,30.27,24.65,36.41,0.04,-272.75,-272.75,-42,565,-933,24.9,3.0,-23.3,24.9,3.1,-23.0,5.73,2.34,-25.0,29.7
2012-11-05 00:04:00,0.0,1.9272,0.0010,405.03,0.21,162.0,32.0,138.07,30.27,24.65,36.40,0.04,-272.75,-272.75,-42,565,-933,24.9,3.0,-23.3,24.9,3.0,-23.1,5.73,2.36,-24.9,29.7
2012-11-05 00:05:00,0.0,1.9275,0.0009,405.03,0.24,166.9,29.6,138.07,30.27,24.65,36.41,0.04,-272.74,-272.74,-42,565,-933,24.8,3.0,-23.3,24.9,3.0,-23.1,5.73,2.42,-24.9,29.7
2012-11-05 00:06:00,0.0,1.9275,0.0012,405.15,0.22,164.2,28.2,138.07,30.27,24.65,36.41,0.04,-272.75,-272.75,-43,565,-933,24.9,3.0,-23.3,24.9,3.0,-23.1,5.73,2.42,-24.9,29.7
2012-11-05 00:07:00,0.0,1.9274,0.0011,405.12,0.28,163.2,31.6,138.07,30.27,24.65,36.40,0.04,-272.75,-272.75,-43,565,-933,24.9,3.0,-23.4,24.9,3.0,-23.1,5.73,2.36,-25.0,29.7
2012-11-05 00:08:00,0.0,1.9275,0.0010,404.99,0.22,159.8,28.9,138.07,30.27,24.65,36.41,0.04,-272.75,-272.75,-43,565,-933,24.9,3.0,-23.4,24.9,3.0,-23.2,5.73,2.35,-25.0,29.7
2012-11-05 00:09:00,0.0,1.9272,0.0009,405.10,0.23,174.1,32.9,138.07,30.27,24.65,36.41,0.04,-272.75,-272.75,-42,565,-933,24.9,3.0,-23.4,24.8,3.0,-23.2,5.73,2.41,-25.0,29.7
2012-11-05 00:10:00,0.0,1.9274,0.0011,405.07,0.19,157.3,27.0,138.07,30.27,24.65,36.41,0.04,-272.75,-272.75,-42,565,-933,24.9,3.0,-23.4,24.9,3.0,-23.1,5.73,2.43,-25.0,29.7
2012-11-05 00:11:00,0.0,1.9276,0.0010,405.19,0.20,157.0,27.4,138.07,30.27,24.65,36.40,0.04,-272.75,-272.75,-42,565,-933,24.9,3.0,-23.3,24.9,3.1,-23.1,5.73,2.37,-25.0,29.7
2012-11-05 00:12:00,0.0,1.9278,0.0010,405.28,0.21,157.1,32.4,138.07,30.28,24.65,36.40,0.04,-272.75,-272.75,-43,565,-933,24.9,3.0,-23.3,24.8,3.0,-23.1,5.73,2.33,-25.0,29.7
2012-11-05 00:13:00,0.0,1.9275,0.0009,405.20,0.22,156.1,28.3,138.07,30.28,24.65,36.40,0.04,-272.75,-272.75,-43,565,-933,24.9,3.0,-23.3,24.8,3.0,-23.1,5.73,2.40,-25.0,29.7
2012-11-05 00:14:00,0.0,1.9273,0.0010,405.10,0.23,153.6,32.8,138.07,30.28,24.65,36.41,0.04,-272.75,-272.75,-42,565,-933,24.9,3.0,-23.4,24.8,3.0,-23.1,5.73,2.44,-25.0,29.7
2012-11-05 00:15:00,0.0,1.9268,0.0008,405.08,0.21,157.8,28.8,138.07,30.28,24.65,36.41,0.04,-272.75,-272.75,-42,564,-933,24.9,3.0,-23.4,24.8,3.0,-23.2,5.73,2.39,-25.0,29.7
2012-11-05 00:16:00,0.0,1.9267,0.0011,405.08,0.16,158.9,24.7,138.07,30.28,24.65,36.41,0.04,-272.75,-272.75,-42,565,-932,24.9,3.0,-23.4,24.8,3.0,-23.2,5.73,2.33,-25.0,29.7
2012-11-05 00:17:00,0.0,1.9269,0.0008,405.12,0.17,160.5,27.9,138.07,30.28,24.65,36.41,0.04,-272.75,-272.75,-43,565,-933,24.9,3.0,-23.4,24.8,3.0,-23.3,5.73,2.37,-25.0,29.7
2012-11-05 00:18:00,0.0,1.9273,0.0009,405.15,0.21,159.1,33.2,138.07,30.28,24.65,36.41,0.04,-272.75,-272.75,-42,564,-933,24.9,2.9,-23.5,24.8,3.0,-23.3,5.73,2.43,-25.0,29.7
2012-11-05 00:19:00,0.0,1.9275,0.0010,405.10,0.17,154.8,30.6,138.07,30.28,24.65,36.41,0.04,-272.75,-272.75,-43,564,-933,24.8,2.9,-23.4,24.8,3.0,-23.3,5.73,2.41,-25.0,29.7
2012-11-05 00:20:00,0.0,1.9271,0.0009,405.05,0.20,149.9,31.3,138.07,30.28,24.65,36.41,0.04,-272.75,-272.75,-42,564,-933,24.8,2.9,-23.5,24.8,3.0,-23.4,5.73,2.34,-25.0,29.7
2012-11-05 00:21:00,0.0,1.9270,0.0010,405.11,0.21,157.4,28.6,138.07,30.28,24.65,36.41,0.04,-272.75,-272.75,-42,565,-933,24.9,2.9,-23.6,24.8,3.0,-23.3,5.73,2.34,-25.0,29.7
2012-11-05 00:22:00,0.0,1.9272,0.0010,405.25,0.18,154.6,33.7,138.07,30.28,24.65,36.40,0.04,-272.75,-272.75,-42,565,-933,24.9,2.9,-23.6,24.8,3.0,-23.3,5.73,2.42,-25.0,29.7
2012-11-05 00:23:00,0.0,1.9276,0.0008,405.15,0.19,149.2,29.0,138.07,30.27,24.65,36.41,0.04,-272.75,-272.75,-42,564,-933,24.9,2.9,-23.6,24.8,3.0,-23.3,5.73,2.43,-25.0,29.7
2012-11-05 00:24:00,0.0,1.9271,0.0011,405.09,0.21,152.8,29.7,138.07,30.27,24.65,36.41,0.04,-272.75,-272.75,-42,564,-933,24.9,2.9,-23.6,24.8,3.0,-23.4,5.73,2.36,-25.0,29.7
2012-11-05 00:25:00,0.0,1.9278,0.0009,405.10,0.24,155.6,31.8,138.07,30.27,24.65,36.41,0.04,-272.75,-272.75,-42,564,-933,24.9,2.9,-23.6,24.8,3.0,-23.4,5.73,2.33,-25.0,29.7
2012-11-05 00:26:00,0.0,1.9274,0.0009,405.33,0.25,159.2,28.9,138.07,30.27,24.65,36.41,0.04,-272.75,-272.75,-42,565,-933,24.9,2.9,-23.6,24.8,3.0,-23.3,5.73,2.40,-25.0,29.7
2012-11-05 00:27:00,0.0,1.9276,0.0008,405.31,0.20,150.0,33.0,138.07,30.28,24.65,36.40,0.04,-272.75,-272.75,-42,565,-933,24.8,2.9,-23.6,24.8,3.0,-23.3,5.73,2.44,-25.0,29.7
2012-11-05 00:28:00,0.0,1.9276,0.0010,405.26,0.20,153.1,27.3,138.07,30.28,24.65,36.40,0.04,-272.75,-272.75,-42,565,-933,24.8,2.9,-23.5,24.8,3.0,-23.3,5.73,2.39,-25.1,29.7
2012-11-05 00:29:00,0.0,1.9276,0.0008,405.19,0.21,156.1,32.3,138.07,30.28,24.65,36.41,0.04,-272.74,-272.75,-42,564,-933,24.8,2.9,-23.5,24.8,3.0,-23.3,5.73,2.34,-25.1,29.7
2012-11-05 00:30:00,0.0,1.9279,0.0009,405.16,0.20,159.2,27.8,138.07,30.28,24.65,36.41,0.04,-272.75,-272.75,-42,564,-933,24.8,2.9,-23.5,24.8,3.0,-23.3,5.73,2.37,-25.1,29.7
2012-11-05 00:31:00,0.0,1.9282,0.0007,405.13,0.24,160.5,34.3,138.07,30.28,24.65,36.41,0.04,-272.75,-272.75,-42,564,-933,24.8,2.9,-23.5,24.8,3.0,-23.2,5.73,2.43,-25.1,29.6
2012-11-05 00:32:00,0.0,1.9279,0.0010,405.20,0.25,157.0,28.9,138.07,30.28,24.65,36.41,0.04,-272.75,-272.74,-42,564,-933,24.8,3.0,-23.4,24.8,3.0,-23.2,5.73,2.41,-25.1,29.7
2012-11-05 00:33:00,0.0,1.9275,0.0009,405.14,0.21,156.5,29.8,138.07,30.28,24.65,36.41,0.04,-272.74,-272.75,-42,564,-933,24.8,3.0,-23.3,24.8,3.0,-23.1,5.73,2.34,-25.1,29.7
2012-11-05 00:34:00,0.0,1.9280,0.0010,405.15,0.26,159.4,26.0,138.07,30.27,24.65,36.41,0.04,-272.75,-272.75,-42,564,-933,24.8,3.0,-23.3,24.8,3.0,-23.1,5.73,2.35,-25.1,29.7
2012-11-05 00:35:00,0.0,1.9272,0.0011,405.21,0.25,156.9,27.4,138.07,30.27,24.65,36.40,0.04,-272.75,-272.75,-43,564,-933,24.8,3.0,-23.3,24.8,3.1,-23.1,5.73,2.42,-25.1,29.7
2012-11-05 00:36:00,0.0,1.9270,0.0010,405.14,0.21,154.7,33.4,138.07,30.27,24.65,36.41,0.04,-272.75,-272.75,-42,564,-933,24.8,3.0,-23.4,24.8,3.0,-23.2,5.73,2.43,-25.1,29.7
2012-11-05 00:37:00,0.0,1.9268,0.0009,405.09,0.24,157.8,35.0,138.07,30.27,24.65,36.41,0.04,-272.75,-272.75,-42,564,-933,24.8,3.0,-23.5,24.8,3.0,-23.3,5.73,2.36,-25.1,29.6
2012-11-05 00:38:00,0.0,1.9273,0.0011,405.19,0.19,148.1,32.0,138.07,30.27,24.65,36.40,0.04,-272.75,-272.75,-42,564,-933,24.8,3.0,-23.4,24.8,3.0,-23.2,5.73,2.33,-25.1,29.6
2012-11-05 00:39:00,0.0,1.9264,0.0010,405.08,0.20,149.5,31.1,138.07,30.27,24.65,36.41,0.04,-272.75,-272.75,-42,564,-933,24.8,3.0,-23.4,24.8,3.1,-23.1,5.73,2.40,-25.1,29.7
2012-11-05 00:40:00,0.0,1.9265,0.0011,405.08,0.21,150.7,28.8,138.07,30.27,24.65,36.41,0.04,-272.75,-272.75,-42,564,-933,24.8,3.0,-23.4,24.8,3.0,-23.2,5.73,2.44,-25.1,29.7
2012-11-05 00:41:00,0.0,1.9271,0.0010,405.11,0.24,148.3,27.0,138.07,30.27,24.65,36.41,0.04,-272.75,-272.75,-43,564,-933,24.8,3.0,-23.4,24.8,3.0,-23.2,5.73,2.38,-25.1,29.7
2012-11-05 00:42:00,0.0,1.9264,0.0010,405.09,0.29,161.1,29.3,138.07,30.27,24.65,36.41,0.04,-272.75,-272.75,-42,564,-933,24.8,2.9,-23.5,24.8,3.0,-23.2,5.73,2.33,-25.1,29.7
2012-11-05 00:43:00,0.0,1.9275,0.0009,405.13,0.20,144.9,27.6,138.07,30.27,24.65,36.41,0.04,-272.75,-272.75,-42,564,-933,24.8,3.0,-23.4,24.8,3.0,-23.2,5.73,2.38,-25.1,29.6
2012-11-05 00:44:00,0.0,1.9275,0.0011,405.30,0.23,155.1,30.7,138.07,30.27,24.65,36.41,0.04,-272.75,-272.75,-42,565,-933,24.8,3.0,-23.4,24.8,3.0,-23.2,5.73,2.44,-25.1,29.6
2012-11-05 00:45:00,0.0,1.9274,0.0008,405.28,0.26,153.0,33.8,138.07,30.27,24.65,36.41,0.04,-272.75,-272.75,-42,564,-933,24.8,2.9,-23.6,24.8,3.0,-23.3,5.73,2.41,-25.1,29.6
2012-11-05 00:46:00,0.0,1.9276,0.0012,405.27,0.20,154.9,33.0,138.07,30.27,24.65,36.41,0.04,-272.75,-272.75,-42,564,-933,24.8,2.9,-23.5,24.8,3.0,-23.4,5.73,2.34,-25.1,29.6
2012-11-05 00:47:00,0.0,1.9276,0.0009,405.41,0.23,154.9,30.0,138.07,30.27,24.65,36.40,0.04,-272.75,-272.75,-42,564,-933,24.8,2.9,-23.5,24.8,3.0,-23.2,5.73,2.35,-25.1,29.7
2012-11-05 00:48:00,0.0,1.9279,0.0010,405.45,0.21,153.8,28.2,138.07,30.27,24.65,36.40,0.04,-272.75,-272.75,-42,564,-933,24.8,2.9,-23.5,24.8,3.0,-23.2,5.73,2.43,-25.1,29.7
2012-11-05 00:49:00,0.0,1.9283,0.0009,405.43,0.20,146.6,32.4,138.07,30.27,24.65,36.41,0.04,-272.74,-272.75,-42,564,-933,24.8,2.9,-23.5,24.8,3.0,-23.3,5.73,2.42,-25.1,29.7
2012-11-05 00:50:00,0.0,1.9280,0.0012,405.43,0.18,151.1,26.6,138.07,30.27,24.65,36.41,0.04,-272.75,-272.75,-42,564,-933,24.8,2.9,-23.5,24.8,3.0,-23.3,5.73,2.35,-25.1,29.7
2012-11-05 00:51:00,0.0,1.9281,0.0010,405.49,0.22,152.9,30.3,138.07,30.27,24.65,36.41,0.04,-272.75,-272.75,-42,564,-933,24.8,2.9,-23.6,24.8,3.0,-23.4,5.73,2.34,-25.2,29.6
2012-11-05 00:52:00,0.0,1.9282,0.0009,405.45,0.20,148.2,29.4,138.07,30.27,24.65,36.41,0.04,-272.74,-272.75,-43,564,-933,24.8,2.9,-23.7,24.8,3.0,-23.4,5.73,2.41,-25.2,29.6
2012-11-05 00:53:00,0.0,1.9276,0.0008,405.38,0.22,148.9,28.7,138.07,30.27,24.65,36.41,0.04,-272.75,-272.75,-43,564,-933,24.8,2.9,-23.7,24.8,3.0,-23.4,5.73,2.44,-25.2,29.6
2012-11-05 00:54:00,0.0,1.9279,0.0009,405.39,0.26,148.3,33.3,138.07,30.27,24.65,36.41,0.04,-272.75,-272.75,-42,564,-932,24.8,2.9,-23.6,24.8,3.0,-23.4,5.73,2.38,-25.2,29.6
2012-11-05 00:55:00,0.0,1.9281,0.0009,405.46,0.18,141.5,30.6,138.07,30.27,24.65,36.41,0.04,-272.74,-272.75,-42,564,-933,24.8,2.9,-23.6,24.8,3.0,-23.4,5.73,2.33,-25.2,29.6
2012-11-05 00:56:00,0.0,1.9279,0.0009,405.51,0.21,158.2,31.0,138.07,30.27,24.65,36.41,0.04,-272.75,-272.75,-42,564,-933,24.8,2.9,-23.5,24.8,3.0,-23.3,5.73,2.38,-25.2,29.6
2012-11-05 00:57:00,0.0,1.9276,0.0009,405.57,0.25,145.0,32.1,138.07,30.26,24.65,36.40,0.04,-272.75,-272.75,-42,564,-933,24.8,3.0,-23.4,24.8,3.0,-23.1,5.73,2.44,-25.2,29.6
2012-11-05 00:58:00,0.0,1.9279,0.0008,405.46,0.19,146.4,37.8,138.07,30.26,24.65,36.41,0.04,-272.75,-272.75,-43,564,-933,24.8,3.0,-23.4,24.8,3.0,-23.1,5.73,2.40,-25.2,29.6
2012-11-05 00:59:00,0.0,1.9281,0.0008,405.55,0.24,152.2,28.9,138.07,30.26,24.65,36.41,0.04,-272.75,-272.75,-43,564,-933,24.8,2.9,-23.5,24.8,3.0,-23.3,5.73,2.33,-25.2,29.7
2012-11-05 01:00:00,0.0,1.9284,0.0010,405.60,0.23,154.0,30.1,138.07,30.26,24.65,36.40,0.04,-272.75,-272.75,-42,564,-933,24.8,2.9,-23.6,24.8,3.0,-23.3,5.73,2.36,-25.2,29.6
2012-11-05 01:01:00,0.0,1.9284,0.0009,405.57,0.20,145.6,30.2,138.07,30.27,24.65,36.40,0.04,-272.75,-272.75,-42,564,-933,24.8,2.9,-23.5,24.8,3.0,-23.4,5.73,2.42,-25.2,29.7
2012-11-05 01:02:00,0.0,1.9280,0.0010,405.48,0.20,147.5,31.8,138.07,30.27,24.65,36.41,0.04,-272.75,-272.75,-42,564,-933,24.8,3.0,-23.5,24.8,3.0,-23.2,5.73,2.43,-25.2,29.6
2012-11-05 01:03:00,0.0,1.9276,0.0010,405.37,0.20,144.1,37.2,138.07,30.26,24.65,36.41,0.04,-272.75,-272.75,-42,564,-933,24.8,3.0,-23.1,24.8,3.1,-23.1,5.73,2.36,-25.2,29.6
2012-11-05 01:04:00,0.0,1.9282,0.0010,405.44,0.24,150.4,31.5,138.07,30.26,24.65,36.41,0.04,-272.75,-272.75,-42,564,-933,24.8,3.0,-23.3,24.8,3.1,-23.0,5.73,2.33,-25.2,29.6
2012-11-05 01:05:00,0.0,1.9279,0.0009,405.46,0.18,146.7,29.3,138.07,30.26,24.65,36.41,0.04,-272.75,-272.75,-42,564,-933,24.8,3.0,-23.2,24.8,3.1,-22.9,5.73,2.41,-25.2,29.6
2012-11-05 01:06:00,0.0,1.9280,0.0010,405.51,0.22,141.9,30.5,138.07,30.26,24.65,36.40,0.04,-272.75,-272.75,-42,564,-933,24.8,3.0,-23.2,24.8,3.1,-23.0,5.73,2.44,-25.2,29.6
2012-11-05 01:07:00,0.0,1.9282,0.0010,405.54,0.21,148.9,27.7,138.07,30.26,24.65,36.41,0.04,-272.75,-272.75,-42,564,-933,24.8,3.0,-23.3,24.8,3.1,-23.1,5.73,2.38,-25.2,29.6
2012-11-05 01:08:00,0.0,1.9282,0.0010,405.56,0.22,147.3,35.0,138.07,30.26,24.65,36.41,0.04,-272.75,-272.75,-42,564,-933,24.8,3.0,-23.3,24.8,3.0,-23.1,5.73,2.33,-25.2,29.7
2012-11-05 01:09:00,0.0,1.9277,0.0011,405.60,0.21,148.2,30.3,138.07,30.26,24.66,36.41,0.28,-270.71,-272.53,-42,564,-933,24.8,3.0,-23.5,24.8,3.0,-23.3,5.42,2.42,-29.5,29.6
2012-11-05 01:10:00,0.0,1.9285,0.0008,405.61,0.24,154.4,28.0,138.07,30.26,24.65,36.41,0.04,-272.75,-272.75,-42,564,-933,24.8,2.9,-23.5,24.8,3.0,-23.2,5.73,2.44,-25.2,29.6
2012-11-05 01:11:00,0.0,1.9284,0.0011,405.61,0.21,151.0,29.1,138.07,30.26,24.65,36.41,0.04,-272.75,-272.75,-42,564,-933,24.8,3.0,-23.3,24.8,3.0,-23.2,5.73,2.40,-25.2,29.6
2012-11-05 01:12:00,0.0,1.9281,0.0009,405.65,0.18,154.4,30.3,138.07,30.26,24.65,36.41,0.04,-272.75,-272.75,-42,564,-933,24.8,3.0,-23.2,24.8,3.0,-23.1,5.73,2.34,-25.2,29.6
2012-11-05 01:13:00,0.0,1.9285,0.0011,405.71,0.20,150.1,37.5,138.07,30.26,24.65,36.40,0.04,-272.75,-272.75,-42,564,-933,24.8,3.0,-23.3,24.8,3.0,-23.1,5.73,2.36,-25.2,29.6
2012-11-05 01:14:00,0.0,1.9288,0.0008,405.74,0.18,148.2,34.2,138.07,30.26,24.65,36.41,0.04,-272.75,-272.75,-42,564,-933,24.8,3.0,-23.3,24.8,3.1,-23.1,5.73,2.43,-25.2,29.7
2012-11-05 01:15:00,0.0,1.9287,0.0009,405.61,0.16,149.2,29.7,138.07,30.26,24.65,36.41,0.04,-272.75,-272.75,-42,564,-933,24.8,3.0,-23.4,24.8,3.0,-23.2,5.73,2.43,-25.2,29.7
2012-11-05 01:16:00,0.0,1.9284,0.0010,405.56,0.19,150.6,35.4,138.07,30.26,24.65,36.41,0.04,-272.75,-272.74,-42,564,-933,24.8,3.0,-23.4,24.8,3.0,-23.2,5.73,2.35,-25.2,29.6
2012-11-05 01:17:00,0.0,1.9288,0.0010,405.67,0.21,154.6,33.9,138.07,30.26,24.65,36.40,0.04,-272.75,-272.75,-42,564,-933,24.8,3.0,-23.4,24.8,3.0,-23.2,5.73,2.34,-25.2,29.6
2012-11-05 01:18:00,0.0,1.9285,0.0008,405.64,0.23,149.0,32.4,138.07,30.26,24.65,36.41,0.04,-272.75,-272.75,-42,564,-933,24.8,3.0,-23.4,24.8,3.0,-23.2,5.73,2.41,-25.2,29.6
2012-11-05 01:19:00,0.0,1.9287,0.0011,405.70,0.22,146.1,29.5,138.07,30.26,24.65,36.41,0.04,-272.74,-272.75,-42,564,-933,24.8,3.0,-23.3,24.8,3.0,-23.1,5.73,2.44,-25.2,29.6
2012-11-05 01:20:00,0.0,1.9286,0.0010,405.72,0.25,146.6,33.0,138.07,30.26,24.65,36.40,0.04,-272.75,-272.75,-42,564,-933,24.8,3.0,-23.3,24.8,3.0,-23.2,5.73,2.38,-25.2,29.6
2012-11-05 01:21:00,0.0,1.9288,0.0008,405.76,0.23,152.2,33.0,138.07,30.26,24.65,36.41,0.04,-272.75,-272.75,-42,564,-933,24.8,3.0,-23.3,24.8,3.0,-23.1,5.73,2.33,-25.2,29.6
2012-11-05 01:22:00,0.0,1.9288,0.0009,405.86,0.21,149.6,32.2,138.07,30.26,24.65,36.40,0.04,-272.75,-272.75,-43,564,-933,24.8,3.0,-23.4,24.8,3.0,-23.1,5.73,2.38,-25.2,29.6
2012-11-05 01:23:00,0.0,1.9282,0.0008,405.73,0.23,154.9,31.3,138.07,30.26,24.65,36.41,0.04,-272.75,-272.75,-42,564,-933,24.8,2.9,-23.6,24.8,3.0,-23.3,5.73,2.44,-25.2,29.6
2012-11-05 01:24:00,0.0,1.9280,0.0010,405.63,0.26,144.2,33.7,138.07,30.26,24.65,36.41,0.04,-272.75,-272.75,-42,564,-933,24.8,2.9,-23.7,24.8,3.0,-23.4,5.73,2.41,-25.2,29.6
2012-11-05 01:25:00,0.0,1.9280,0.0008,405.61,0.20,148.8,26.6,138.07,30.26,24.65,36.41,0.04,-272.75,-272.75,-42,564,-933,24.8,2.9,-23.7,24.8,3.0,-23.4,5.73,2.34,-25.2,29.6
2012-11-05 01:26:00,0.0,1.9282,0.0008,405.66,0.21,143.0,28.1,138.07,30.25,24.65,36.41,0.04,-272.75,-272.74,-42,564,-933,24.8,2.9,-23.7,24.8,3.0,-23.5,5.73,2.35,-25.2,29.6
2012-11-05 01:27:00,0.0,1.9281,0.0009,405.49,0.22,147.5,28.4,138.07,30.25,24.65,36.41,0.04,-272.75,-272.75,-43,564,-933,24.8,2.9,-23.6,24.8,3.0,-23.4,5.73,2.42,-25.2,29.6
2012-11-05 01:28:00,0.0,1.9277,0.0009,405.46,0.19,149.4,34.8,138.07,30.25,24.65,36.41,0.04,-272.75,-272.75,-43,564,-933,24.8,2.9,-23.6,24.8,3.0,-23.4,5.73,2.43,-25.2,29.7
2012-11-05 01:29:00,0.0,1.9276,0.0007,405.54,0.27,145.0,27.8,138.07,30.26,24.65,36.41,0.04,-272.75,-272.75,-42,564,-933,24.8,2.9,-23.8,24.8,2.9,-23.5,5.73,2.36,-25.2,29.6
2012-11-05 01:30:00,0.0,1.9282,0.0009,405.63,0.21,134.2,32.0,138.07,30.25,24.65,36.41,0.04,-272.75,-272.75,-42,564,-933,24.8,2.9,-23.6,24.8,3.0,-23.4,5.73,2.34,-25.2,29.6
2012-11-05 01:31:00,0.0,1.9279,0.0009,405.49,0.25,141.4,33.6,138.07,30.25,24.65,36.42,0.04,-272.75,-272.75,-42,564,-933,24.8,2.9,-23.6,24.7,3.0,-23.4,5.73,2.39,-25.3,29.6
2012-11-05 01:32:00,0.0,1.9279,0.0009,405.57,0.21,146.3,29.1,138.07,30.25,24.65,36.41,0.04,-272.75,-272.75,-42,564,-933,24.8,3.0,-23.4,24.8,3.0,-23.3,5.73,2.44,-25.2,29.7
2012-11-05 01:33:00,0.0,1.9279,0.0010,405.65,0.23,147.4,34.3,138.07,30.25,24.65,36.40,0.04,-272.75,-272.75,-42,564,-933,24.8,3.0,-23.4,24.7,3.0,-23.3,5.73,2.39,-25.2,29.6
2012-11-05 01:34:00,0.0,1.9279,0.0009,405.67,0.20,147.5,28.3,138.07,30.25,24.65,36.40,0.04,-272.75,-272.75,-42,564,-933,24.8,3.0,-23.4,24.8,3.0,-23.2,5.73,2.33,-25.2,29.6
2012-11-05 01:35:00,0.0,1.9278,0.0010,405.54,0.23,145.4,30.1,138.07,30.25,24.65,36.41,0.04,-272.75,-272.75,-42,564,-933,24.8,2.9,-23.5,24.8,3.0,-23.3,5.73,2.37,-25.2,29.6
2012-11-05 01:36:00,0.0,1.9278,0.0009,405.57,0.21,140.5,26.8,138.07,30.25,24.65,36.41,0.04,-272.75,-272.74,-42,564,-933,24.8,3.0,-23.4,24.7,3.0,-23.2,5.73,2.43,-25.2,29.6
2012-11-05 01:37:00,0.0,1.9283,0.0010,405.57,0.23,150.3,33.6,138.07,30.25,24.65,36.41,0.04,-272.75,-272.75,-42,564,-933,24.8,3.0,-23.3,24.8,3.1,-23.1,5.73,2.42,-25.2,29.6
2012-11-05 01:38:00,0.0,1.9277,0.0008,405.67,0.25,149.9,36.0,138.07,30.25,24.66,36.41,0.04,-272.75,-272.75,-42,564,-933,24.8,3.0,-23.3,24.7,3.0,-23.2,5.73,2.35,-25.2,29.6
2012-11-05 01:39:00,0.0,1.9280,0.0009,405.72,0.25,146.5,27.6,138.07,30.25,24.65,36.40,0.04,-272.75,-272.75,-42,564,-933,24.8,3.0,-23.3,24.7,3.0,-23.2,5.73,2.35,-25.2,29.6
2012-11-05 01:40:00,0.0,1.9281,0.0008,405.77,0.23,143.1,27.6,138.07,30.25,24.65,36.40,0.04,-272.75,-272.75,-42,564,-933,24.8,3.0,-23.4,24.7,3.0,-23.2,5.73,2.41,-25.2,29.6
2012-11-05 01:41:00,0.0,1.9283,0.0010,405.65,0.20,140.7,30.3,138.07,30.25,24.65,36.41,0.04,-272.75,-272.75,-42,564,-933,24.8,3.0,-23.5,24.8,3.0,-23.2,5.73,2.44,-25.3,29.7
2012-11-05 01:42:00,0.0,1.9283,0.0008,405.75,0.22,147.2,37.4,138.07,30.25,24.65,36.41,0.04,-272.75,-272.75,-42,564,-933,24.8,3.0,-23.4,24.8,3.0,-23.3,5.73,2.37,-25.3,29.6
2012-11-05 01:43:00,0.0,1.9284,0.0008,405.81,0.26,143.3,31.2,138.07,30.25,24.65,36.41,0.04,-272.74,-272.74,-42,564,-933,24.8,3.0,-23.4,24.7,3.0,-23.2,5.73,2.33,-25.3,29.6
2012-11-05 01:44:00,0.0,1.9286,0.0007,405.79,0.23,142.9,30.7,138.07,30.25,24.65,36.41,0.04,-272.75,-272.75,-42,564,-933,24.8,3.0,-23.5,24.7,3.0,-23.3,5.73,2.39,-25.3,29.6
2012-11-05 01:45:00,0.0,1.9282,0.0012,405.81,0.22,145.4,28.3,138.07,30.25,24.65,36.41,0.04,-272.75,-272.75,-42,564,-933,24.7,2.9,-23.6,24.7,3.0,-23.3,5.73,2.44,-25.3,29.6
2012-11-05 01:46:00,0.0,1.9283,0.0008,405.78,0.24,136.7,31.2,138.07,30.25,24.65,36.40,0.04,-272.75,-272.75,-43,564,-933,24.8,2.9,-23.5,24.7,3.0,-23.4,5.73,2.40,-25.3,29.6
2012-11-05 01:47:00,0.0,1.9278,0.0009,405.76,0.24,144.1,30.3,138.07,30.25,24.65,36.40,0.04,-272.75,-272.75,-42,564,-933,24.7,2.9,-23.8,24.7,3.0,-23.5,5.73,2.34,-25.3,29.6
2012-11-05 01:48:00,0.0,1.9271,0.0010,405.62,0.20,141.0,26.8,138.07,30.25,24.65,36.42,0.04,-272.75,-272.75,-42,564,-933,24.7,2.9,-23.9,24.7,2.9,-23.7,5.73,2.36,-25.3,29.6
2012-11-05 01:49:00,0.0,1.9273,0.0010,405.70,0.21,136.1,29.5,138.07,30.25,24.65,36.40,0.04,-272.75,-272.75,-42,564,-933,24.7,2.8,-23.9,24.7,2.9,-23.8,5.73,2.43,-25.3,29.6
2012-11-05 01:50:00,0.0,1.9275,0.0009,405.70,0.23,140.3,30.4,138.07,30.24,24.65,36.40,0.04,-272.75,-272.75,-42,564,-933,24.7,2.8,-23.9,24.7,2.9,-23.7,5.73,2.43,-25.3,29.6
2012-11-05 01:51:00,0.0,1.9278,0.0009,405.66,0.21,148.4,30.7,138.07,30.24,24.65,36.41,0.04,-272.75,-272.75,-42,564,-933,24.7,2.8,-24.0,24.7,2.9,-23.8,5.73,2.36,-25.3,29.6
2012-11-05 01:52:00,0.0,1.9276,0.0008,405.70,0.23,139.4,30.5,138.07,30.24,24.65,36.42,0.04,-272.75,-272.75,-42,564,-933,24.7,2.9,-23.9,24.7,2.9,-23.7,5.73,2.34,-25.3,29.6
2012-11-05 01:53:00,0.0,1.9280,0.0010,405.82,0.21,134.7,28.5,138.07,30.24,24.65,36.41,0.04,-272.75,-272.75,-42,564,-933,24.7,2.8,-24.1,24.7,2.9,-23.7,5.73,2.40,-25.3,29.6
2012-11-05 01:54:00,0.0,1.9281,0.0008,405.86,0.23,142.8,31.7,138.07,30.24,24.65,36.41,0.04,-272.75,-272.75,-42,564,-933,24.7,2.8,-24.1,24.7,2.9,-23.8,5.73,2.44,-25.3,29.7
2012-11-05 01:55:00,0.0,1.9278,0.0008,405.91,0.20,144.4,28.8,138.07,30.24,24.65,36.41,0.04,-272.75,-272.75,-42,564,-933,24.7,2.8,-24.2,24.7,2.8,-23.9,5.73,2.39,-25.3,29.7
2012-11-05 01:56:00,0.0,1.9282,0.0011,405.99,0.20,133.2,27.0,138.07,30.24,24.65,36.41,0.04,-272.75,-272.75,-42,564,-933,24.7,2.8,-24.3,24.7,2.8,-24.0,5.73,2.33,-25.3,29.6
2012-11-05 01:57:00,0.0,1.9281,0.0009,406.03,0.24,144.3,33.3,138.07,30.24,24.65,36.41,0.04,-272.74,-272.75,-43,564,-933,24.7,2.8,-24.2,24.7,2.8,-24.0,5.73,2.37,-25.3,29.6
2012-11-05 01:58:00,0.0,1.9286,0.0008,406.08,0.19,143.5,28.3,138.07,30.24,24.65,36.41,0.04,-272.75,-272.75,-42,564,-933,24.7,2.8,-24.3,24.8,2.8,-24.0,5.73,2.43,-25.3,29.6
2012-11-05 01:59:00,0.0,1.9286,0.0008,406.09,0.20,147.1,29.0,138.07,30.24,24.65,36.41,0.04,-272.75,-272.75,-42,564,-933,24.7,2.7,-24.3,24.7,2.8,-24.0,5.73,2.43,-25.3,29.6
2012-11-05 02:00:00,0.0,1.9283,0.0008,406.08,0.24,141.9,31.1,138.07,30.24,24.65,36.41,0.04,-272.74,-272.75,-42,564,-933,24.7,2.8,-24.3,24.7,2.8,-24.1,5.73,2.35,-25.3,29.6
2012-11-05 02:01:00,0.0,1.9282,0.0008,406.12,0.20,146.4,28.0,138.07,30.24,24.66,36.41,0.04,-272.75,-272.75,-42,564,-933,24.7,2.8,-24.2,24.7,2.8,-24.1,5.73,2.34,-25.3,29.6
2012-11-05 02:02:00,0.0,1.9278,0.0008,405.98,0.22,145.8,32.1,138.07,30.23,24.65,36.41,0.04,-272.75,-272.75,-42,564,-933,24.7,2.8,-24.2,24.7,2.8,-24.1,5.73,2.39,-25.4,29.5
2012-11-05 02:03:00,0.0,1.9278,0.0011,406.06,0.22,136.1,33.1,138.07,30.23,24.65,36.41,0.04,-272.75,-272.75,-43,564,-933,24.7,2.8,-24.3,24.7,2.8,-24.1,5.73,2.44,-25.4,29.5
2012-11-05 02:04:00,0.0,1.9283,0.0008,406.02,0.24,136.3,27.0,138.07,30.23,24.65,36.41,0.04,-272.75,-272.75,-42,564,-933,24.7,2.8,-24.3,24.7,2.8,-24.1,5.73,2.41,-25.4,29.6
2012-11-05 02:05:00,0.0,1.9280,0.0008,406.04,0.19,147.2,28.4,138.07,30.23,24.65,36.41,0.04,-272.75,-272.75,-42,564,-933,24.7,2.7,-24.3,24.7,2.8,-24.1,5.73,2.35,-25.4,29.6
2012-11-05 02:06:00,0.0,1.9285,0.0010,406.11,0.23,136.7,21.2,138.07,30.23,24.65,36.40,0.04,-272.75,-272.75,-42,564,-933,24.7,2.8,-24.3,24.7,2.8,-24.1,5.73,2.35,-25.4,29.6
2012-11-05 02:07:00,0.0,1.9279,0.0009,406.05,0.22,133.0,30.1,138.07,30.23,24.65,36.41,0.04,-272.75,-272.75,-42,564,-933,24.7,2.8,-24.1,24.7,2.8,-24.0,5.73,2.41,-25.4,29.5
2012-11-05 02:08:00,0.0,1.9278,0.0010,406.02,0.19,144.7,36.0,138.07,30.23,24.65,36.41,0.04,-272.75,-272.75,-42,564,-933,24.7,2.8,-24.3,24.7,2.8,-24.0,5.73,2.44,-25.4,29.6
2012-11-05 02:09:00,0.0,1.9282,0.0008,406.12,0.23,139.5,28.2,138.07,30.23,24.65,36.40,0.04,-272.75,-272.75,-42,564,-933,24.7,2.8,-24.1,24.7,2.8,-24.0,5.73,2.40,-25.4,29.6
2012-11-05 02:10:00,0.0,1.9283,0.0008,406.04,0.21,136.3,31.5,138.07,30.22,24.65,36.40,0.04,-272.74,-272.75,-42,564,-933,24.7,2.8,-24.0,24.7,2.9,-23.9,5.73,2.34,-25.4,29.6
2012-11-05 02:11:00,0.0,1.9280,0.0008,405.99,0.22,143.3,27.2,138.07,30.23,24.65,36.41,0.04,-272.75,-272.75,-42,564,-933,24.7,2.8,-24.1,24.7,2.8,-23.9,5.73,2.36,-25.4,29.6
2012-11-05 02:12:00,0.0,1.9283,0.0010,406.08,0.27,136.3,29.5,138.07,30.22,24.65,36.40,0.04,-272.75,-272.75,-42,564,-933,24.7,2.8,-24.2,24.7,2.9,-23.9,5.73,2.41,-25.4,29.6
2012-11-05 02:13:00,0.0,1.9280,0.0010,406.06,0.22,138.7,30.6,138.07,30.22,24.65,36.41,0.04,-272.74,-272.75,-42,564,-933,24.7,2.8,-24.0,24.7,2.9,-23.8,5.73,2.44,-25.4,29.6
2012-11-05 02:14:00,0.0,1.9280,0.0011,406.01,0.24,146.8,27.5,138.07,30.22,24.65,36.41,0.04,-272.75,-272.75,-42,564,-934,24.7,2.8,-24.0,24.7,2.9,-23.9,5.73,2.40,-25.4,29.5
2012-11-05 02:15:00,0.0,1.9275,0.0009,406.00,0.21,142.3,33.0,138.07,30.22,24.65,36.40,0.04,-272.75,-272.75,-42,564,-933,24.7,2.8,-24.1,24.7,2.9,-23.9,5.73,2.34,-25.4,29.5
2012-11-05 02:16:00,0.0,1.9277,0.0009,406.06,0.23,138.3,30.4,138.07,30.22,24.65,36.40,0.04,-272.75,-272.75,-42,563,-934,24.7,2.8,-24.1,24.7,2.9,-23.9,5.73,2.36,-25.4,29.5